Regional Weather Roundup
Issued by NWS

Home | Current Version | Previous Version | Graphics & Text | Print | Product List | Glossary On
Versions: 1 2 3 4 5 6 7 8 9 10 11 12 13 14 15 16 17 18 19 20 21 22 23 24 25 26 27
000
ASUS45 KBOI 151410
RWRID

IDAHO REGIONAL WEATHER ROUNDUP
NATIONAL WEATHER SERVICE BOISE ID
700 AM MST FRI DEC 15 2017

NOTE: "FAIR" INDICATES FEW OR NO CLOUDS BELOW 12000 FEET
WITH NO SIGNIFICANT WEATHER AND/OR OBSTRUCTIONS TO VISIBILITY

IDZ012-014-151500-
SOUTHWEST IDAHO


CITY           SKY/WX    TMP DP  RH WIND       PRES   REMARKS
BOISE          CLOUDY    26  23  88 SE8       30.36R WCI  18
CALDWELL       CLOUDY    27  26  96 SE6       30.39S WCI  20
MOUNTAIN HOME  CLOUDY    24  24 100 SE12      30.35F FOG     WCI  13
$$

IDZ016-017-151500-
SOUTHCENTRAL IDAHO


CITY           SKY/WX    TMP DP  RH WIND       PRES   REMARKS
BURLEY         MOCLDY    21  18  88 N6        30.28S FOG     WCI  13
JEROME         CLOUDY    23  19  85 E9        30.29F FOG     WCI  13
TWIN FALLS     FOG       22  21  96 E5        30.29F VSB 1/4 WCI  16
$$

IDZ019>023-151500-
SOUTHEAST IDAHO


CITY           SKY/WX    TMP DP  RH WIND       PRES   REMARKS
IDAHO FALLS    FOG       18  16  92 NE3       30.34F VSB 1/4
POCATELLO      CLOUDY    20  18  92 NE10      30.33S FOG     WCI   9
REXBURG        CLOUDY    18  16  92 CALM      30.28F FOG
$$

IDZ006-010-011-018-031-032-151500-
CENTRAL IDAHO MOUNTAINS


CITY           SKY/WX    TMP DP  RH WIND       PRES   REMARKS
MCCALL         CLOUDY    14  10  84 CALM      30.21S FOG
HAILEY         CLEAR     19  16  86 NW5       30.27F WCI  13
STANLEY          N/A      3   0  87 CALM      30.26F
SALMON         CLOUDY    28  22  78 S8        30.28F WCI  20
CHALLIS        CLOUDY    22  18  85 CALM      30.26F
$$

IDZ002-004-006-007-026-151500-
NORTHERN IDAHO


CITY           SKY/WX    TMP DP  RH WIND       PRES   REMARKS
LEWISTON       CLOUDY    27  27 100 CALM      30.22F
LOWELL           N/A     30  27  88 CALM      30.28S
COEUR D`ALENE  CLOUDY    30  27  88 SW6       30.18F WCI  24
MULLAN PASS    MOCLDY    26  21  81 VRB6      30.04F WCI  19
$$




USA.gov is the U.S. government's official web portal to all federal, state and local government web resources and services.